FW2111 Weather Reports


Display with metric or nautical units.
time (UTC)temp
F
wind
direction
speed
MPH
gust
MPH
rain 1hr
in
rain 24hr
in
rain mn
in
humidity
%
barometer
mb
20260831053644 65 67 5.0 14.0 0.08 0.38 0.08 83 1012.9
20260831053118 65 76 4.0 14.0 0.06 0.35 0.05 83 1012.9
20260831052615 65 24 6.0 14.0 0.03 0.32 0.03 83 1012.8
20260831052550 65 34 7.0 14.0 0.05 0.32 0.02 82 1012.5
20260831051545 65 94 6.0 14.0 0.06 0.31 0.01 82 1012.5
20260831051014 65 89 4.0 10.0 0.12 0.30 0.00 82 1012.6
20260831050506 65 61 3.0 9.0 0.23 0.30 0.00 82 1012.8
20260831045937 66 56 3.0 11.0 0.24 0.30 0.30 82 1013.1
20260831045439 66 52 5.0 11.0 0.24 0.30 0.30 82 1013.2
20260831044910 66 40 5.0 11.0 0.24 0.30 0.30 83 1012.9
20260831044904 66 70 5.0 12.0 0.24 0.30 0.30 83 1013.0
20260831043859 66 65 6.0 12.0 0.24 0.30 0.30 82 1012.7
20260831043340 66 51 6.0 13.0 0.24 0.30 0.30 82 1012.7
20260831042837 65 72 6.0 18.0 0.23 0.29 0.29 82 1012.7
20260831042339 65 16 7.0 18.0 0.21 0.27 0.28 81 1012.9
20260831042107 65 80 7.0 15.0 0.20 0.26 0.26 80 1012.8
20260831040806 65 350 3.0 8.0 0.05 0.11 0.13 79 1013.5
20260831040301 65 45 4.0 9.0 0.00 0.06 0.06 78 1012.9
20260831035800 65 5 4.0 10.0 0.00 0.06 0.06 78 1013.0
20260831035255 65 74 5.0 10.0 0.00 0.06 0.06 78 1013.0
20260831034753 64 23 4.0 10.0 0.00 0.06 0.06 78 1013.3
20260831034229 64 57 4.0 10.0 0.00 0.06 0.06 77 1013.2
20260831033712 64 36 5.0 12.0 0.00 0.06 0.06 77 1013.1
20260831033208 64 28 5.0 12.0 0.00 0.06 0.06 76 1013.3
20260831032641 64 67 4.0 9.0 0.00 0.06 0.06 76 1013.4
20260831032139 64 86 5.0 10.0 0.00 0.06 0.06 76 1013.4
20260831031635 64 78 5.0 10.0 0.00 0.06 0.06 76 1013.4
20260831031109 64 61 5.0 10.0 0.00 0.06 0.06 76 1013.3
20260831030558 64 75 5.0 15.0 0.00 0.06 0.06 76 1013.3
20260831030326 64 72 6.0 15.0 0.00 0.06 0.06 76 1013.2
20260831025527 64 40 6.0 15.0 0.00 0.06 0.06 76 1013.1
20260831025025 64 49 6.0 15.0 0.00 0.06 0.06 76 1013.3
20260831024457 64 90 6.0 15.0 0.00 0.06 0.06 76 1013.5
20260831023956 64 17 7.0 15.0 0.00 0.06 0.06 76 1013.6
20260831023454 64 78 7.0 15.0 0.00 0.06 0.06 76 1013.6
20260831022955 64 65 7.0 15.0 0.00 0.06 0.06 76 1013.6
20260831022722 64 119 7.0 15.0 0.00 0.06 0.06 76 1013.5
20260831021955 63 74 7.0 17.0 0.00 0.06 0.06 75 1013.5
20260831021429 63 69 8.0 17.0 0.00 0.06 0.06 75 1013.6
20260831020901 63 42 9.0 19.0 0.00 0.06 0.06 75 1013.4
20260831020359 63 75 9.0 19.0 0.00 0.06 0.06 74 1013.4
20260831015832 64 57 9.0 20.0 0.00 0.06 0.06 74 1013.2
20260831015333 64 82 10.0 19.0 0.00 0.06 0.06 74 1013.3
20260831014821 64 69 11.0 20.0 0.00 0.06 0.06 74 1013.3
20260831014319 64 63 10.0 19.0 0.00 0.06 0.06 73 1013.3
20260831013752 64 105 9.0 18.0 0.00 0.06 0.06 73 1013.3
20260831013251 64 61 7.0 17.0 0.00 0.06 0.06 73 1013.3
20260831013000 64 117 8.0 14.0 0.00 0.06 0.06 73 1013.2
20260831012225 64 94 9.0 18.0 0.00 0.06 0.06 73 1013.2
20260831011659 64 44 10.0 18.0 0.00 0.06 0.06 73 1013.1
20260831011133 64 54 8.0 17.0 0.00 0.06 0.06 73 1013.2
20260831010609 64 40 7.0 18.0 0.00 0.06 0.06 73 1013.2
20260831010050 65 63 6.0 17.0 0.00 0.06 0.06 73 1013.1
20260831005552 65 71 6.0 15.0 0.00 0.06 0.06 73 1013.0
20260831005032 65 83 7.0 15.0 0.00 0.06 0.06 73 1013.0
20260831004527 65 88 6.0 15.0 0.00 0.06 0.06 73 1012.9
20260831004026 65 112 6.0 12.0 0.00 0.06 0.06 73 1013.0
20260831003524 65 78 6.0 15.0 0.00 0.06 0.06 73 1013.1
20260831003245 65 61 7.0 16.0 0.00 0.06 0.06 73 1013.3
20260831002746 65 88 6.0 16.0 0.00 0.06 0.06 73 1013.3
20260831002013 65 59 7.0 18.0 0.00 0.06 0.06 73 1013.4
20260831001511 65 57 7.0 18.0 0.00 0.06 0.06 73 1013.6
20260831001010 64 65 7.0 17.0 0.00 0.06 0.06 73 1013.6
20260831000507 64 79 7.0 17.0 0.00 0.06 0.06 73 1013.6
20260831000009 64 37 8.0 17.0 0.00 0.06 0.06 73 1013.6
20260830235509 64 83 9.0 17.0 0.00 0.06 0.06 73 1013.5
20260830234946 64 38 9.0 21.0 0.00 0.06 0.06 73 1013.6
20260830234658 64 85 8.0 21.0 0.00 0.06 0.06 73 1013.7
20260830233908 64 77 8.0 17.0 0.00 0.06 0.06 73 1013.6
20260830233349 64 106 8.0 17.0 0.00 0.06 0.06 73 1013.8
20260830232850 64 90 7.0 20.0 0.00 0.06 0.06 73 1013.8
20260830232339 64 61 8.0 18.0 0.00 0.06 0.06 73 1014.2
20260830231837 64 82 10.0 21.0 0.00 0.06 0.06 73 1014.1
20260830231341 64 76 9.0 18.0 0.00 0.06 0.06 72 1013.9
20260830230838 65 105 9.0 18.0 0.00 0.06 0.06 72 1013.8
20260830230338 65 45 10.0 19.0 0.00 0.06 0.06 73 1013.9
20260830225837 65 67 10.0 19.0 0.00 0.06 0.06 73 1013.9
20260830225309 65 63 9.0 21.0 0.00 0.06 0.06 72 1013.9
20260830224812 65 59 8.0 21.0 0.00 0.06 0.06 72 1013.9
20260830224309 66 97 8.0 18.0 0.00 0.06 0.06 72 1013.8
20260830223806 66 101 7.0 18.0 0.00 0.06 0.06 71 1013.8
20260830223244 66 59 7.0 18.0 0.00 0.06 0.06 72 1013.5
20260830222718 66 113 9.0 18.0 0.00 0.06 0.06 72 1013.6
20260830222215 66 71 11.0 21.0 0.00 0.06 0.06 71 1013.7
20260830221712 67 66 10.0 21.0 0.00 0.06 0.06 71 1013.8
20260830221212 67 63 10.0 20.0 0.00 0.06 0.06 71 1013.8
20260830220644 67 64 9.0 20.0 0.00 0.06 0.06 70 1013.8
20260830220127 67 76 9.0 18.0 0.00 0.06 0.06 70 1013.8
20260830215601 67 79 10.0 18.0 0.00 0.06 0.06 70 1013.7
20260830215036 67 63 7.0 17.0 0.00 0.06 0.06 70 1013.5
20260830214532 67 45 6.0 17.0 0.00 0.06 0.06 70 1013.7
20260830214030 67 82 8.0 18.0 0.00 0.06 0.06 71 1014.0
20260830213502 67 43 9.0 18.0 0.00 0.06 0.06 71 1014.0
20260830213002 67 126 8.0 19.0 0.00 0.06 0.06 71 1014.0
20260830212432 67 65 7.0 19.0 0.00 0.06 0.06 71 1014.0
20260830212137 66 98 8.0 18.0 0.00 0.06 0.06 71 1013.9
20260830211340 66 63 8.0 20.0 0.00 0.06 0.06 71 1014.1
20260830210812 66 70 8.0 20.0 0.00 0.06 0.06 71 1014.2
20260830210541 66 75 8.0 19.0 0.00 0.06 0.06 71 1014.3
20260830205743 66 67 9.0 19.0 0.00 0.06 0.06 71 1014.3
20260830205244 66 90 9.0 18.0 0.00 0.06 0.06 71 1014.4
20260830204941 66 82 10.0 18.0 0.00 0.06 0.06 71 1014.3
20260830204204 66 90 9.0 17.0 0.00 0.06 0.06 71 1014.4
20260830203702 66 98 8.0 20.0 0.00 0.06 0.06 71 1014.4
20260830203149 66 69 9.0 20.0 0.00 0.06 0.06 71 1014.4
20260830202651 66 112 12.0 21.0 0.00 0.06 0.06 71 1014.5
20260830202358 66 69 12.0 21.0 0.00 0.06 0.06 71 1014.5
20260830201828 67 74 10.0 21.0 0.00 0.06 0.06 70 1014.4
20260830201056 67 83 10.0 19.0 0.00 0.06 0.06 69 1014.4
20260830200553 67 82 10.0 21.0 0.00 0.06 0.06 69 1014.3
20260830200050 67 85 9.0 21.0 0.00 0.06 0.06 69 1014.3
20260830195546 67 71 10.0 21.0 0.00 0.06 0.06 69 1014.4
20260830195043 67 94 11.0 22.0 0.00 0.06 0.06 69 1014.4
20260830194522 67 89 10.0 21.0 0.00 0.06 0.06 69 1014.6
20260830193948 67 74 10.0 18.0 0.00 0.06 0.06 69 1014.5
20260830193420 67 101 11.0 24.0 0.00 0.06 0.06 69 1014.3
20260830192854 67 82 9.0 24.0 0.00 0.06 0.06 69 1014.3
20260830192326 67 67 9.0 22.0 0.00 0.06 0.06 69 1014.4
20260830191824 67 111 8.0 16.0 0.00 0.06 0.06 69 1014.3
20260830191550 67 74 8.0 16.0 0.00 0.06 0.06 70 1014.5
20260830191048 67 105 7.0 19.0 0.00 0.06 0.06 70 1014.3
20260830190313 67 75 8.0 19.0 0.00 0.06 0.06 70 1014.3
20260830185816 67 78 9.0 18.0 0.00 0.06 0.06 71 1014.3
20260830185306 67 77 8.0 16.0 0.00 0.06 0.06 70 1014.4
20260830184801 67 66 8.0 16.0 0.00 0.06 0.06 70 1014.4
20260830184737 67 42 9.0 18.0 0.00 0.06 0.06 71 1014.4
20260830183706 66 51 9.0 18.0 0.00 0.06 0.06 71 1014.4
20260830183202 66 87 9.0 18.0 0.00 0.06 0.06 71 1014.3
20260830182700 66 63 9.0 17.0 0.00 0.06 0.06 71 1014.3
20260830182158 67 86 7.0 21.0 0.00 0.06 0.06 71 1014.2
20260830181655 66 92 8.0 21.0 0.00 0.06 0.06 73 1014.2
20260830181152 66 101 8.0 16.0 0.00 0.06 0.06 75 1014.3
20260830180648 66 49 9.0 19.0 0.00 0.06 0.06 80 1014.5
20260830180146 65 82 10.0 18.0 0.00 0.06 0.06 81 1014.7
20260830175619 65 86 10.0 17.0 0.00 0.06 0.06 81 1014.7
20260830175052 64 101 8.0 17.0 0.00 0.06 0.06 82 1014.8
20260830174550 65 51 8.0 19.0 0.00 0.06 0.06 82 1014.9
20260830174042 65 71 7.0 19.0 0.00 0.06 0.06 82 1014.8
20260830173540 65 71 6.0 18.0 0.00 0.06 0.06 83 1014.7
20260830173029 65 82 7.0 12.0 0.00 0.06 0.06 83 1014.5
20260830172526 64 83 7.0 17.0 0.00 0.06 0.06 83 1014.7
20260830172013 64 88 8.0 17.0 0.01 0.06 0.06 83 1014.7
20260830171517 64 101 7.0 15.0 0.01 0.06 0.06 83 1014.6
20260830170949 63 52 8.0 15.0 0.01 0.06 0.06 83 1014.8
20260830170446 63 73 8.0 19.0 0.01 0.06 0.06 83 1014.9
20260830170150 63 96 8.0 19.0 0.01 0.06 0.06 83 1014.8
20260830165415 63 91 9.0 20.0 0.01 0.06 0.06 83 1014.8
20260830164913 63 60 9.0 20.0 0.02 0.06 0.06 83 1014.7
20260830164409 63 146 7.0 18.0 0.02 0.06 0.06 83 1014.6
20260830163859 63 100 8.0 18.0 0.03 0.06 0.06 83 1014.8
20260830163400 63 79 9.0 18.0 0.04 0.06 0.06 82 1014.9
20260830162858 63 105 8.0 17.0 0.04 0.06 0.06 82 1014.9
20260830162356 63 103 7.0 14.0 0.03 0.05 0.05 82 1014.8
20260830161828 63 95 7.0 15.0 0.04 0.05 0.05 82 1014.9
20260830161327 63 128 7.0 15.0 0.04 0.05 0.05 81 1014.9
20260830160802 63 39 6.0 17.0 0.05 0.05 0.05 81 1014.9
20260830160242 63 41 6.0 17.0 0.05 0.05 0.05 80 1015.0
20260830155744 63 68 8.0 17.0 0.05 0.05 0.05 80 1015.1
20260830155222 63 67 8.0 18.0 0.04 0.04 0.05 80 1015.0
20260830154724 63 57 7.0 18.0 0.04 0.04 0.04 80 1014.9
20260830154204 63 64 6.0 13.0 0.04 0.04 0.04 80 1014.9
20260830153706 63 81 7.0 15.0 0.03 0.03 0.03 80 1015.0
20260830153422 63 121 7.0 15.0 0.02 0.02 0.02 80 1015.2
20260830152650 63 76 7.0 17.0 0.02 0.02 0.02 79 1015.3
20260830152154 63 107 7.0 17.0 0.01 0.01 0.01 79 1015.3
20260830152138 63 67 7.0 14.0 0.01 0.01 0.01 78 1015.3
20260830151137 63 65 6.0 13.0 0.01 0.01 0.01 78 1015.6
20260830150629 63 43 6.0 13.0 0.00 0.00 0.00 78 1015.8
20260830150128 63 69 7.0 16.0 0.00 0.00 0.00 78 1015.8
20260830145626 63 73 7.0 16.0 0.00 0.00 0.00 78 1015.6
20260830145129 63 102 6.0 14.0 0.00 0.00 0.00 77 1015.4
20260830144610 63 91 6.0 14.0 0.00 0.00 0.00 77 1015.2
20260830144343 63 44 6.0 16.0 0.00 0.00 0.00 77 1015.0
20260830143546 63 26 8.0 17.0 0.00 0.00 0.00 77 1014.8
20260830143044 63 96 8.0 17.0 0.00 0.00 0.00 77 1014.7
20260830142543 63 74 9.0 16.0 0.00 0.00 0.00 76 1014.7
20260830142022 63 86 8.0 16.0 0.00 0.00 0.00 76 1014.7
20260830141455 64 74 9.0 20.0 0.00 0.00 0.00 75 1014.4
20260830140936 64 94 9.0 20.0 0.00 0.00 0.00 75 1014.5
20260830140414 64 86 8.0 18.0 0.00 0.00 0.00 75 1014.5
20260830140149 64 61 9.0 18.0 0.00 0.00 0.00 75 1014.4
20260830135351 64 53 9.0 18.0 0.00 0.00 0.00 75 1014.3
20260830134824 64 124 9.0 18.0 0.00 0.00 0.00 75 1014.2
20260830134303 64 67 8.0 18.0 0.00 0.00 0.00 75 1014.2
20260830133738 64 125 5.0 13.0 0.00 0.00 0.00 75 1014.1
20260830133212 64 121 5.0 15.0 0.00 0.00 0.00 75 1014.2
20260830132645 64 90 5.0 15.0 0.00 0.01 0.00 75 1014.4
20260830132129 64 59 5.0 11.0 0.00 0.01 0.00 75 1014.5
20260830131601 64 60 6.0 18.0 0.00 0.02 0.00 75 1014.6
20260830131101 64 73 7.0 18.0 0.00 0.03 0.00 75 1014.7
20260830130533 64 71 6.0 15.0 0.00 0.03 0.00 75 1014.8
20260830130032 64 123 7.0 15.0 0.00 0.04 0.00 75 1014.7
20260830130006 64 102 7.0 15.0 0.00 0.04 0.00 75 1014.7
20260830124952 64 70 6.0 15.0 0.00 0.04 0.00 75 1014.8
20260830124424 64 78 7.0 15.0 0.00 0.04 0.00 75 1014.8
20260830123921 64 158 7.0 15.0 0.00 0.04 0.00 75 1014.8
20260830123355 64 97 5.0 11.0 0.00 0.04 0.00 75 1015.0
20260830122827 64 80 4.0 11.0 0.00 0.05 0.00 75 1015.0
20260830122324 64 69 5.0 11.0 0.00 0.05 0.00 75 1014.9
20260830121759 64 76 5.0 11.0 0.00 0.05 0.00 75 1014.9
20260830121232 64 27 6.0 13.0 0.00 0.05 0.00 75 1014.8
20260830120705 64 144 6.0 13.0 0.00 0.05 0.00 75 1014.7
20260830120432 64 53 6.0 13.0 0.00 0.05 0.00 75 1014.6
20260830115659 64 103 6.0 12.0 0.00 0.05 0.00 75 1014.7
20260830115137 64 69 4.0 10.0 0.00 0.05 0.00 75 1014.2
20260830115132 64 94 5.0 12.0 0.00 0.05 0.00 75 1014.4
20260830114116 64 69 4.0 11.0 0.00 0.05 0.00 75 1014.2
20260830113618 64 116 5.0 11.0 0.00 0.05 0.00 75 1014.2
20260830113051 64 70 5.0 11.0 0.00 0.05 0.00 75 1014.1
20260830112549 64 105 4.0 11.0 0.00 0.05 0.00 76 1014.1
20260830112254 64 88 4.0 12.0 0.00 0.05 0.00 76 1013.9
20260830111506 64 63 4.0 12.0 0.00 0.05 0.00 76 1013.8
20260830111003 64 40 4.0 10.0 0.00 0.05 0.00 76 1013.9
20260830110447 64 67 4.0 10.0 0.00 0.05 0.00 76 1013.8
20260830105949 64 67 4.0 10.0 0.00 0.05 0.00 76 1013.8
20260830105422 64 88 4.0 10.0 0.00 0.05 0.00 76 1013.9
20260830104917 64 69 3.0 10.0 0.00 0.05 0.00 76 1014.0
20260830104414 64 67 3.0 9.0 0.00 0.05 0.00 76 1014.0
20260830103915 64 24 4.0 12.0 0.00 0.05 0.00 76 1014.2
20260830103647 64 94 4.0 12.0 0.00 0.05 0.00 76 1014.0
20260830102910 64 64 4.0 11.0 0.00 0.05 0.00 76 1014.0
20260830102343 64 73 3.0 9.0 0.00 0.05 0.00 76 1013.9
20260830101815 64 32 3.0 11.0 0.00 0.05 0.00 76 1014.0
20260830101539 64 68 2.0 11.0 0.00 0.05 0.00 76 1013.9
20260830100805 64 113 2.0 5.0 0.00 0.05 0.00 76 1013.9
20260830100303 64 76 2.0 5.0 0.00 0.05 0.00 76 1013.8
20260830095737 64 71 2.0 7.0 0.00 0.05 0.00 76 1013.7
20260830095223 64 40 3.0 9.0 0.00 0.05 0.00 76 1013.7
20260830094936 64 31 3.0 9.0 0.00 0.05 0.00 76 1013.7
20260830094432 64 55 3.0 7.0 0.00 0.05 0.00 76 1013.7
20260830093634 64 53 2.0 6.0 0.00 0.05 0.00 76 1013.7
20260830093131 64 93 2.0 10.0 0.00 0.05 0.00 76 1013.7
20260830092604 64 80 4.0 10.0 0.00 0.05 0.00 76 1013.7
20260830092039 64 68 3.0 10.0 0.00 0.05 0.00 76 1013.5
20260830091513 64 88 2.0 6.0 0.00 0.05 0.00 76 1013.6
20260830090945 64 53 2.0 7.0 0.00 0.05 0.00 76 1013.6
20260830090443 64 61 2.0 7.0 0.00 0.05 0.00 76 1013.6
20260830085939 64 49 2.0 7.0 0.00 0.05 0.00 75 1013.7
20260830085437 64 54 3.0 8.0 0.00 0.05 0.00 76 1013.6
20260830085141 64 42 4.0 12.0 0.00 0.05 0.00 75 1013.7
20260830084407 64 59 4.0 12.0 0.00 0.05 0.00 75 1013.6
20260830083841 64 62 3.0 7.0 0.00 0.05 0.00 75 1013.5
20260830083315 64 94 2.0 7.0 0.00 0.05 0.00 75 1013.7
20260830082748 64 77 3.0 8.0 0.00 0.05 0.00 75 1013.5
20260830082245 64 57 3.0 8.0 0.00 0.05 0.00 75 1013.7
20260830081719 64 65 2.0 6.0 0.00 0.05 0.00 75 1013.8
20260830081152 64 56 3.0 10.0 0.00 0.05 0.00 75 1013.9
20260830080649 64 80 4.0 10.0 0.00 0.05 0.00 75 1013.8
20260830080122 64 67 2.0 8.0 0.00 0.05 0.00 75 1013.7
20260830075851 64 90 2.0 6.0 0.00 0.05 0.00 74 1013.9
20260830075101 64 104 3.0 9.0 0.00 0.05 0.00 74 1013.9
20260830074559 64 85 3.0 9.0 0.00 0.05 0.00 74 1013.7
20260830074100 64 49 4.0 9.0 0.00 0.05 0.00 74 1013.6
20260830073535 64 53 3.0 8.0 0.00 0.05 0.00 73 1013.7
20260830073037 64 55 3.0 8.0 0.00 0.05 0.00 73 1013.7
20260830072531 64 62 3.0 7.0 0.00 0.05 0.00 73 1013.7
20260830072029 64 61 3.0 7.0 0.00 0.05 0.00 73 1013.6
20260830071525 64 44 3.0 8.0 0.00 0.05 0.00 73 1013.6
20260830071028 64 72 2.0 8.0 0.00 0.05 0.00 73 1013.7
20260830070508 64 75 2.0 6.0 0.00 0.05 0.00 73 1013.7
20260830065950 64 94 3.0 6.0 0.00 0.05 0.00 73 1013.7
20260830065723 64 69 2.0 6.0 0.00 0.05 0.00 73 1013.6
20260830064932 64 80 2.0 6.0 0.00 0.05 0.00 73 1013.6
20260830064433 64 78 3.0 6.0 0.00 0.05 0.00 73 1013.7
20260830063911 64 61 2.0 8.0 0.00 0.05 0.00 73 1013.8
20260830063412 64 76 1.0 4.0 0.00 0.05 0.00 73 1013.9
20260830062855 64 88 2.0 5.0 0.00 0.05 0.00 73 1014.0
20260830062356 64 65 2.0 5.0 0.00 0.05 0.00 72 1014.0
20260830062105 64 82 2.0 4.0 0.00 0.05 0.00 72 1014.2
20260830061329 64 67 1.0 4.0 0.00 0.05 0.00 72 1014.3
20260830060828 64 52 1.0 3.0 0.00 0.05 0.00 72 1014.4
20260830060308 64 53 1.0 3.0 0.00 0.05 0.00 72 1014.5
20260830055747 64 55 1.0 5.0 0.00 0.05 0.00 72 1014.7
20260830055248 64 54 1.0 5.0 0.00 0.05 0.00 72 1014.8
20260830054724 64 66 2.0 4.0 0.00 0.05 0.00 72 1014.5
20260830054222 64 67 1.0 4.0 0.00 0.05 0.00 72 1014.6